<?xml version='1.0' encoding='UTF-8'?>
<gpx xmlns="http://www.topografix.com/GPX/1/1" creator="www.balnam.be" version="1.1" xmlns:xsi="http://www.w3.org/2001/XMLSchema-instance" xsi:schemaLocation="http://www.topografix.com/GPX/1/1 http://www.topografix.com/GPX/1/1/gpx.xsd">
<trk>
<name>hmomv1</name>
<cmt>v</cmt>
<desc>Mesvin Chemin n°1 </desc>
<link href="https://chemins.be/mesvin/chemin/1"/><trkseg>
<trkpt lat="50.431476" lon="3.965444"><time>2026-05-02T14:21:28Z</time></trkpt>
<trkpt lat="50.432043" lon="3.966180"><time>2026-05-02T14:31:28Z</time></trkpt>
<trkpt lat="50.433024" lon="3.967453"><time>2026-05-02T14:41:28Z</time></trkpt>
</trkseg>
</trk>
<trk>
<name>hmomv12</name>
<cmt>q</cmt>
<desc>Mesvin Sentier n°12 </desc>
<link href="https://chemins.be/mesvin/sentier/12"/><trkseg>
<trkpt lat="50.413868" lon="3.955436"><time>2026-05-02T14:21:28Z</time></trkpt>
<trkpt lat="50.412905" lon="3.958329"><time>2026-05-02T14:31:28Z</time></trkpt>
</trkseg>
</trk>
<trk>
<name>hmomv4</name>
<cmt>v</cmt>
<desc>Mesvin Chemin n°4 </desc>
<link href="https://chemins.be/mesvin/chemin/4"/><trkseg>
<trkpt lat="50.420565" lon="3.954907"><time>2026-05-02T14:21:28Z</time></trkpt>
<trkpt lat="50.418785" lon="3.957497"><time>2026-05-02T14:31:28Z</time></trkpt>
<trkpt lat="50.417984" lon="3.959770"><time>2026-05-02T14:41:28Z</time></trkpt>
<trkpt lat="50.416464" lon="3.962118"><time>2026-05-02T14:51:28Z</time></trkpt>
</trkseg>
</trk>
<trk>
<name>hmomv5</name>
<cmt>v</cmt>
<desc>Mesvin Chemin n°5 </desc>
<link href="https://chemins.be/mesvin/chemin/5"/><trkseg>
<trkpt lat="50.422610" lon="3.961081"><time>2026-05-02T14:21:28Z</time></trkpt>
<trkpt lat="50.422247" lon="3.961437"><time>2026-05-02T14:31:28Z</time></trkpt>
<trkpt lat="50.422184" lon="3.961428"><time>2026-05-02T14:41:28Z</time></trkpt>
<trkpt lat="50.421918" lon="3.961185"><time>2026-05-02T14:51:28Z</time></trkpt>
<trkpt lat="50.418665" lon="3.961706"><time>2026-05-02T15:01:28Z</time></trkpt>
<trkpt lat="50.417563" lon="3.962714"><time>2026-05-02T15:11:28Z</time></trkpt>
</trkseg>
</trk>
<trk>
<name>hmomv6</name>
<cmt>v</cmt>
<desc>Mesvin Chemin n°6 Sentier des Borraines</desc>
<link href="https://chemins.be/mesvin/chemin/6"/><trkseg>
<trkpt lat="50.421463" lon="3.970167"><time>2026-05-02T14:21:28Z</time></trkpt>
<trkpt lat="50.421520" lon="3.968478"><time>2026-05-02T14:31:28Z</time></trkpt>
<trkpt lat="50.421837" lon="3.966491"><time>2026-05-02T14:41:28Z</time></trkpt>
<trkpt lat="50.421968" lon="3.965364"><time>2026-05-02T14:51:28Z</time></trkpt>
<trkpt lat="50.422064" lon="3.961944"><time>2026-05-02T15:01:28Z</time></trkpt>
<trkpt lat="50.422237" lon="3.961601"><time>2026-05-02T15:11:28Z</time></trkpt>
</trkseg></trk>
<trk>
<name>hmomv6</name>
<cmt>q</cmt>
<desc>Mesvin Chemin n°6 Sentier des Borraines</desc>
<link href="https://chemins.be/mesvin/chemin/6"/><trkseg>
<trkpt lat="50.422237" lon="3.961601"><time>2026-05-02T15:11:28Z</time></trkpt>
<trkpt lat="50.422205" lon="3.960476"><time>2026-05-02T15:21:28Z</time></trkpt>
</trkseg></trk>
<trk>
<name>hmomv6</name>
<cmt>s</cmt>
<desc>Mesvin Chemin n°6 Sentier des Borraines</desc>
<link href="https://chemins.be/mesvin/chemin/6"/><trkseg>
<trkpt lat="50.422205" lon="3.960476"><time>2026-05-02T15:21:28Z</time></trkpt>
<trkpt lat="50.422071" lon="3.955733"><time>2026-05-02T15:31:28Z</time></trkpt>
</trkseg></trk>
<trk>
<name>hmomv6</name>
<cmt>q</cmt>
<desc>Mesvin Chemin n°6 Sentier des Borraines</desc>
<link href="https://chemins.be/mesvin/chemin/6"/><trkseg>
<trkpt lat="50.422071" lon="3.955733"><time>2026-05-02T15:31:28Z</time></trkpt>
<trkpt lat="50.422167" lon="3.953556"><time>2026-05-02T15:41:28Z</time></trkpt>
<trkpt lat="50.422221" lon="3.953447"><time>2026-05-02T15:51:28Z</time></trkpt>
</trkseg>
</trk>
<trk>
<name>hmomv7</name>
<cmt>v</cmt>
<desc>Mesvin Sentier n°7 Le sentier</desc>
<link href="https://chemins.be/mesvin/sentier/7"/><trkseg>
<trkpt lat="50.429122" lon="3.959561"><time>2026-05-02T14:21:28Z</time></trkpt>
<trkpt lat="50.428681" lon="3.959466"><time>2026-05-02T14:31:28Z</time></trkpt>
<trkpt lat="50.428349" lon="3.959413"><time>2026-05-02T14:41:28Z</time></trkpt>
<trkpt lat="50.427881" lon="3.959347"><time>2026-05-02T14:51:28Z</time></trkpt>
<trkpt lat="50.427512" lon="3.959293"><time>2026-05-02T15:01:28Z</time></trkpt>
<trkpt lat="50.427197" lon="3.959268"><time>2026-05-02T15:11:28Z</time></trkpt>
<trkpt lat="50.427089" lon="3.959255"><time>2026-05-02T15:21:28Z</time></trkpt>
<trkpt lat="50.427044" lon="3.959255"><time>2026-05-02T15:31:28Z</time></trkpt>
<trkpt lat="50.427008" lon="3.959227"><time>2026-05-02T15:41:28Z</time></trkpt>
<trkpt lat="50.426946" lon="3.959326"><time>2026-05-02T15:51:28Z</time></trkpt>
<trkpt lat="50.426865" lon="3.959482"><time>2026-05-02T16:01:28Z</time></trkpt>
</trkseg>
</trk>
<trk>
<name>hmomv8</name>
<cmt>q</cmt>
<desc>Mesvin Chemin n°8 </desc>
<link href="https://chemins.be/mesvin/chemin/8"/><trkseg>
<trkpt lat="50.428222" lon="3.970750"><time>2026-05-02T14:21:28Z</time></trkpt>
<trkpt lat="50.428274" lon="3.970823"><time>2026-05-02T14:31:28Z</time></trkpt>
<trkpt lat="50.428322" lon="3.970866"><time>2026-05-02T14:41:28Z</time></trkpt>
<trkpt lat="50.428510" lon="3.970974"><time>2026-05-02T14:51:28Z</time></trkpt>
<trkpt lat="50.428578" lon="3.971013"><time>2026-05-02T15:01:28Z</time></trkpt>
<trkpt lat="50.428599" lon="3.971102"><time>2026-05-02T15:11:28Z</time></trkpt>
<trkpt lat="50.428609" lon="3.971174"><time>2026-05-02T15:21:28Z</time></trkpt>
<trkpt lat="50.428582" lon="3.971340"><time>2026-05-02T15:31:28Z</time></trkpt>
<trkpt lat="50.428573" lon="3.971445"><time>2026-05-02T15:41:28Z</time></trkpt>
<trkpt lat="50.428604" lon="3.971496"><time>2026-05-02T15:51:28Z</time></trkpt>
<trkpt lat="50.428884" lon="3.971619"><time>2026-05-02T16:01:28Z</time></trkpt>
<trkpt lat="50.428980" lon="3.971627"><time>2026-05-02T16:11:28Z</time></trkpt>
<trkpt lat="50.429022" lon="3.971592"><time>2026-05-02T16:21:28Z</time></trkpt>
</trkseg>
</trk>
<trk>
<name>hmomvi1</name>
<cmt>v</cmt>
<desc>Mesvin Chemin n°i1 </desc>
<link href="https://chemins.be/mesvin/chemin/i1"/><trkseg>
<trkpt lat="50.424217" lon="3.955614"><time>2026-05-02T14:21:28Z</time></trkpt>
<trkpt lat="50.424340" lon="3.954959"><time>2026-05-02T14:31:28Z</time></trkpt>
<trkpt lat="50.424292" lon="3.954909"><time>2026-05-02T14:41:28Z</time></trkpt>
</trkseg>
</trk>
<trk>
<name>hmomvi2</name>
<cmt>v</cmt>
<desc>Mesvin Chemin n°i2 </desc>
<link href="https://chemins.be/mesvin/chemin/i2"/><trkseg>
<trkpt lat="50.430317" lon="3.959143"><time>2026-05-02T14:21:28Z</time></trkpt>
<trkpt lat="50.429549" lon="3.958220"><time>2026-05-02T14:31:28Z</time></trkpt>
<trkpt lat="50.429289" lon="3.958038"><time>2026-05-02T14:41:28Z</time></trkpt>
<trkpt lat="50.429032" lon="3.957935"><time>2026-05-02T14:51:28Z</time></trkpt>
</trkseg></trk>
<trk>
<name>hmomvi2</name>
<cmt>q</cmt>
<desc>Mesvin Chemin n°i2 </desc>
<link href="https://chemins.be/mesvin/chemin/i2"/><trkseg>
<trkpt lat="50.429032" lon="3.957935"><time>2026-05-02T14:51:28Z</time></trkpt>
<trkpt lat="50.428256" lon="3.956561"><time>2026-05-02T15:01:28Z</time></trkpt>
<trkpt lat="50.427062" lon="3.953949"><time>2026-05-02T15:11:28Z</time></trkpt>
<trkpt lat="50.426826" lon="3.953543"><time>2026-05-02T15:21:28Z</time></trkpt>
<trkpt lat="50.426592" lon="3.953264"><time>2026-05-02T15:31:28Z</time></trkpt>
<trkpt lat="50.425722" lon="3.951343"><time>2026-05-02T15:41:28Z</time></trkpt>
</trkseg>
</trk>
<trk>
<name>hmomvi3</name>
<cmt>v</cmt>
<desc>Mesvin Chemin n°i3 </desc>
<link href="https://chemins.be/mesvin/chemin/i3"/><trkseg>
<trkpt lat="50.425473" lon="3.951992"><time>2026-05-02T14:21:28Z</time></trkpt>
<trkpt lat="50.424636" lon="3.954499"><time>2026-05-02T14:31:28Z</time></trkpt>
<trkpt lat="50.424390" lon="3.955391"><time>2026-05-02T14:41:28Z</time></trkpt>
<trkpt lat="50.424066" lon="3.955789"><time>2026-05-02T14:51:28Z</time></trkpt>
</trkseg>
</trk>
<trk>
<name>hmomvi4</name>
<cmt>v</cmt>
<desc>Mesvin Chemin n°i4 </desc>
<link href="https://chemins.be/mesvin/chemin/i4"/><trkseg>
<trkpt lat="50.422211" lon="3.961454"><time>2026-05-02T14:21:28Z</time></trkpt>
<trkpt lat="50.421956" lon="3.961629"><time>2026-05-02T14:31:28Z</time></trkpt>
</trkseg>
</trk>
<trk>
<name>hmomvL109</name>
<cmt>v</cmt>
<desc>Mesvin Chemin n°L109 RAVeL L109a</desc>
<link href="https://chemins.be/mesvin/chemin/L109"/><trkseg>
<trkpt lat="50.425368" lon="3.951866"><time>2026-05-02T14:21:28Z</time></trkpt>
<trkpt lat="50.424296" lon="3.954911"><time>2026-05-02T14:31:28Z</time></trkpt>
<trkpt lat="50.423988" lon="3.955734"><time>2026-05-02T14:41:28Z</time></trkpt>
<trkpt lat="50.422063" lon="3.961336"><time>2026-05-02T14:51:28Z</time></trkpt>
<trkpt lat="50.421605" lon="3.962652"><time>2026-05-02T15:01:28Z</time></trkpt>
<trkpt lat="50.421057" lon="3.964434"><time>2026-05-02T15:11:28Z</time></trkpt>
<trkpt lat="50.420382" lon="3.969038"><time>2026-05-02T15:21:28Z</time></trkpt>
</trkseg>
</trk>
</gpx>